Location: Bolzano
(46.5170°N, 11.3670°E)
Time: 10:53:44
(UTC+01:00)

ISS - Visible Passes

Search period start: 07 February 2026 00:00
Search period end: 17 February 2026 00:00
Orbit: 414 x 429 km, 51.6° (Epoch: 6 February)

Date Brightness Start Highest point End Pass type
(mag) Time Alt. Az. Time Alt. Az. Time Alt. Az.
12 Feb -1.3 06:19:46 10° SSW 06:22:25 22° SE 06:25:04 10° E visible
13 Feb -0.9 05:33:39 10° S 05:35:32 14° SE 05:37:25 10° E visible
14 Feb -3.1 06:21:36 10° SW 06:24:52 54° SSE 06:28:09 10° ENE visible
15 Feb -2.4 05:36:12 21° SSW 05:37:50 35° SE 05:40:55 10° ENE visible
16 Feb -1.5 04:51:20 22° SE 04:51:20 22° SE 04:53:32 10° E visible
16 Feb -3.8 06:24:20 12° WSW 06:27:25 69° NNW 06:30:45 10° ENE visible
